Weather History for Ypsilanti, MI

Change the Weather History Date:

Saturday, June 7, 2014

  Actual Average Record
Temperature  
Mean Temperature 68 °F -  
Max Temperature 84 °F 79 °F 96 °F (2011)
Min Temperature 53 °F 57 °F 42 °F (1977)
Cooling Degree Days 4    
Growing Degree Days 18 (Base 50)    
Moisture  
Dew Point 50 °F    
Average Humidity 62    
Maximum Humidity 90    
Minimum Humidity 19    
Precipitation  
Precipitation 0.00 in - - ()
Sea Level Pressure  
Sea Level Pressure 29.99 in    
Wind  
Wind Speed 3 mph (ESE)    
Max Wind Speed 10 mph    
Max Gust Speed -    
Visibility 8 miles    
Events      
Averages and records for this station are not official NWS values.
T = Trace of Precipitation, MM = Missing Value Source: NWS Daily Summary

Daily Weather History Graph

Daily Weather History Graph

Search for Another Location

Airport:

Trip Planner

Search our weather history database for the weather conditions in past years. The results will help you decide how hot, cold, wet, or windy it might be!

Date:

Astronomy

Jun. 07, 2014 Rise Set
Actual Time 5:58 AM EDT 9:08 PM EDT
Civil Twilight 5:23 AM EDT 9:42 PM EDT
Nautical Twilight 4:39 AM EDT 10:26 PM EDT
Astronomical Twilight 3:47 AM EDT 11:19 PM EDT
Moon 3:19 PM EDT (6/7) 2:25 AM EDT (6/7)
Length of Visible Light 16h 18m
Length of Day
15h 10m
Waxing Gibbous, 67% of the Moon is Illuminated
Jun 7
Waxing Gibbous
Jun 13
Full
Jun 19
Last Quarter
Jun 27
New
Jul 5
First Quarter

Hourly Weather History & Observations

Time (EDT) Temp. Dew Point Humidity Pressure Visibility Wind Dir Wind Speed Gust Speed Precip Events Conditions
12:53 AM 60.1 °F 54.0 °F 80% 30.01 in 10.0 mi Calm Calm - N/A   Clear
1:53 AM 57.9 °F 53.1 °F 84% 30.01 in 9.0 mi NW 4.6 mph - N/A   Clear
2:20 AM 55.0 °F 52.0 °F 89% 30.02 in 1.8 mi Calm Calm - N/A   Clear
2:28 AM 55.9 °F 51.1 °F 84% 30.02 in 4.0 mi Calm Calm - N/A   Haze
2:53 AM 57.9 °F 52.0 °F 81% 30.02 in 7.0 mi WNW 3.5 mph - N/A   Clear
3:53 AM 55.9 °F 50.0 °F 80% 30.02 in 6.0 mi Calm Calm - N/A   Haze
4:03 AM 55.9 °F 51.1 °F 84% 30.03 in 1.8 mi Calm Calm - N/A   Haze
4:14 AM 55.0 °F 51.1 °F 86% 30.03 in 3.0 mi Calm Calm - N/A   Clear
5:00 AM 55.0 °F 51.1 °F 86% 30.02 in 1.8 mi Calm Calm - N/A   Clear
5:14 AM 55.0 °F 51.1 °F 86% 30.02 in 6.0 mi Calm Calm - N/A   Clear
5:38 AM 54.0 °F 51.1 °F 90% 30.02 in 1.8 mi Calm Calm - N/A   Clear
5:48 AM 53.6 °F 48.2 °F 82% 30.02 in 4.0 mi Calm Calm - N/A   Haze
5:53 AM 53.1 °F 48.9 °F 86% 30.00 in 10.0 mi ENE 3.5 mph - N/A   Clear
6:10 AM 54.0 °F 48.9 °F 83% 30.03 in 2.0 mi Calm Calm - N/A   Haze
6:19 AM 54.0 °F 50.0 °F 86% 30.04 in 6.0 mi Calm Calm - N/A   Clear
6:53 AM 55.9 °F 51.1 °F 84% 30.04 in 8.0 mi Calm Calm - N/A   Clear
8:53 AM 72.0 °F 53.1 °F 51% 30.06 in 10.0 mi Calm Calm - N/A   Clear
9:53 AM 75.9 °F 54.0 °F 46% 30.04 in 10.0 mi ENE 4.6 mph - N/A   Clear
11:53 AM 82.9 °F 48.9 °F 31% 30.01 in 10.0 mi ESE 9.2 mph - N/A   Clear
12:53 PM 82.9 °F 45.0 °F 26% 30.01 in 10.0 mi SSE 10.4 mph - N/A   Clear
1:53 PM 84.0 °F 48.0 °F 28% 29.99 in 10.0 mi ESE 8.1 mph - N/A   Clear
2:53 PM 84.9 °F 46.9 °F 27% 29.98 in 10.0 mi SSE 8.1 mph - N/A   Clear
3:53 PM 84.0 °F 37.0 °F 19% 29.95 in 10.0 mi SE 10.4 mph - N/A   Clear
4:53 PM 84.0 °F 37.9 °F 19% 29.94 in 10.0 mi SSE 10.4 mph - N/A   Clear
5:53 PM 82.0 °F 48.0 °F 30% 29.94 in 10.0 mi Variable 6.9 mph - N/A   Clear
6:53 PM 81.0 °F 50.0 °F 34% 29.92 in 10.0 mi SSE 9.2 mph - N/A   Clear
7:53 PM 77.0 °F 50.0 °F 39% 29.92 in 10.0 mi SE 6.9 mph - N/A   Clear
8:53 PM 71.1 °F 51.1 °F 49% 29.90 in 10.0 mi SE 5.8 mph - N/A   Clear
9:53 PM 69.1 °F 48.9 °F 49% 29.89 in 10.0 mi SE 5.8 mph - N/A   Clear
10:53 PM 68.0 °F 51.1 °F 55% 29.90 in 10.0 mi East 3.5 mph - N/A   Clear
11:53 PM 66.9 °F 52.0 °F 59% 29.89 in 10.0 mi East 3.5 mph - N/A   Clear